Lapse_Rate
6.8 6.3 5.9 5.7 5.7 6.0 6.5 6.6 6.7 6.6 6.5 6.5 6.5 6.2 5.9 5.7 9.5 9.1 8.7 7.3 5.4 5.5 6.2 6.8 7.3 7.7 8.4 8.2 8.2 7.9 7.8 7.9 7.9
6.4 5.9 5.4 5.3 5.3 5.5 5.6 5.9 6.1 6.0 6.3 6.9 7.6 6.3 5.7 7.5 9.6 9.4 8.4 7.8 5.5 6.0 6.5 6.6 6.6 6.8 7.9 7.9 8.7 8.1 8.0 8.5 8.5
6.4 6.0 5.7 5.5 5.5 5.6 5.8 6.0 6.0 5.9 6.0 6.2 6.1 5.7 5.3 8.4 9.5 9.1 8.4 6.6 5.7 6.3 6.8 6.8 6.8 7.1 7.3 7.8 8.0 8.3 7.9 8.0 7.9
6.5 6.3 6.0 5.9 5.8 5.7 5.8 5.8 5.9 5.8 5.9 5.8 5.6 5.3 5.1 7.5 9.1 8.3 9.0 5.3 6.1 6.9 7.1 7.3 7.4 7.3 7.4 7.5 7.6 7.7 8.2 8.0 7.8
6.5 6.1 6.0 6.0 6.0 5.8 5.6 5.7 5.8 5.9 5.7 5.4 5.0 4.9 5.6 9.5 9.1 9.4 7.8 6.1 7.4 7.8 7.6 7.6 7.6 7.6 7.0 7.3 7.5 7.5 7.6 7.8 7.9
7.2 5.3 5.1 5.3 5.5 5.6 5.7 5.6 5.2 5.2 5.2 4.6 4.6 5.5 9.2 9.4 9.0 9.3 5.5 6.6 7.5 7.7 7.4 7.5 7.4 7.3 7.3 7.5 7.0 6.9 6.9 7.0 7.2
7.9 5.7 4.8 4.8 5.1 5.1 5.1 5.0 5.1 5.8 9.1 8.9 6.5 9.0 9.0 8.8 8.6 8.3 5.0 6.3 7.3 7.6 7.6 7.1 7.3 7.0 7.0 7.0 7.0 6.7 6.6 6.7 6.6
8.1 8.2 8.1 8.1 5.9 8.3 7.2 7.7 8.4 8.1 8.7 8.6 8.7 8.4 8.6 8.6 8.3 5.8 4.7 5.6 6.4 7.3 7.0 6.8 6.5 6.3 6.4 6.8 6.9 6.6 6.4 6.3 6.1
9.6 9.6 8.2 8.1 8.5 8.6 8.3 9.0 8.1 8.0 8.0 8.2 8.5 8.1 7.8 7.8 7.6 5.4 3.8 5.3 6.2 6.7 6.7 6.0 5.7 5.9 6.3 6.5 6.1 6.0 6.2 6.4 6.5
9.2 8.7 8.6 8.4 8.1 8.4 8.5 8.5 8.2 8.0 8.1 7.7 7.3 6.9 6.7 6.7 6.7 6.7 3.3 4.8 5.6 5.8 5.6 5.5 5.4 5.4 5.8 6.1 5.9 5.9 6.4 6.2 6.4
8.9 8.5 7.5 7.0 6.1 4.9 6.2 7.1 7.6 7.5 7.1 7.2 6.7 6.7 6.3 6.4 6.0 6.9 4.9 4.2 4.8 5.1 5.3 4.9 5.1 5.3 5.6 5.8 5.9 5.8 5.7 5.5 6.0
7.3 5.6 5.1 5.9 5.8 5.8 6.8 6.9 6.7 6.4 6.1 6.7 6.9 6.5 6.4 6.4 6.0 6.5 6.8 5.7 3.8 4.3 4.3 4.4 4.6 4.6 4.8 5.2 5.5 5.6 5.1 4.7 5.5
3.9 4.4 4.4 4.3 5.6 6.2 6.5 6.1 5.8 5.6 5.7 6.3 6.7 6.6 6.2 6.4 6.5 6.5 6.8 6.4 6.6 5.1 3.3 3.2 3.4 3.5 4.1 4.7 5.0 5.2 4.6 4.7 5.0
5.0 4.3 4.2 5.3 5.6 5.9 5.4 4.7 4.9 4.8 5.2 5.6 6.5 5.8 5.9 6.2 6.5 7.1 6.7 5.6 5.8 5.9 4.7 3.7 3.7 3.1 3.2 3.8 4.3 4.5 4.5 4.5 4.6
3.4 2.4 4.6 5.2 5.1 4.9 4.5 4.3 3.9 3.9 4.4 5.8 6.4 5.5 5.7 6.1 6.9 7.2 7.0 5.9 5.3 5.3 5.2 5.2 5.4 3.9 3.4 3.3 3.5 3.7 4.3 4.4 4.7
1.3 1.3 2.4 4.5 4.7 4.4 4.5 3.9 4.0 3.9 4.1 6.0 7.3 6.4 5.9 6.2 7.0 7.3 7.6 6.1 5.9 5.8 5.6 5.3 5.3 5.2 4.2 3.7 3.1 3.3 3.6 4.0 4.6
2.5 4.3 3.2 4.3 4.1 3.8 3.7 4.0 4.0 3.9 4.0 5.2 6.5 8.1 8.6 8.4 7.1 7.3 6.3 7.0 6.3 5.9 5.3 4.7 4.7 4.7 4.7 4.4 3.3 3.3 3.6 4.0 4.6
1.6 3.0 4.0 2.9 3.5 2.9 2.9 3.2 3.8 4.9 4.5 4.9 6.5 7.9 7.7 7.8 8.6 7.4 8.0 7.7 6.7 6.2 5.0 4.6 4.9 4.8 5.1 5.1 5.0 4.5 4.0 4.7 5.9
2.3 2.2 3.7 3.4 3.1 3.2 2.8 3.3 4.4 5.1 5.5 6.0 5.6 5.6 6.7 8.1 8.0 8.9 9.3 8.9 9.3 9.4 8.5 6.5 5.8 5.7 6.2 6.0 5.6 5.6 5.7 6.5 7.8
2.9 3.2 3.4 2.9 3.3 3.0 3.1 3.5 4.4 5.0 5.4 5.5 5.7 6.2 7.3 7.9 8.4 8.0 8.5 9.3 9.7 9.8 9.8 9.4 7.7 8.5 9.2 9.3 9.1 9.2 8.8 9.4 9.5
Wind_Speed
8 7 6 6 5 6 6 6 6 6 6 5 4 4 3 7 4 4 3 4 6 7 8 10 10 10 11 11 12 11 11 12 12
8 7 6 6 6 5 5 4 4 4 4 5 5 5 4 7 4 4 5 5 7 9 8 9 11 12 13 13 13 14 15 13 14
7 6 5 5 4 4 3 2 2 2 3 5 6 7 7 7 5 5 6 6 9 10 10 11 12 13 15 15 14 14 14 14 15
8 5 3 3 2 1 1 2 3 3 3 4 5 5 5 8 5 7 6 10 11 11 13 14 14 15 15 15 16 17 17 16 16
7 6 5 2 0 2 2 2 2 3 3 4 4 5 8 5 5 4 8 10 10 10 10 11 12 12 12 12 16 19 18 18 18
7 7 3 0 1 1 2 3 3 1 2 2 3 5 4 4 4 4 10 10 9 9 10 10 11 11 13 12 13 14 12 13 17
3 3 2 3 3 1 1 2 0 4 1 2 2 3 3 3 4 5 10 10 10 9 9 10 11 13 13 13 13 13 13 13 14
6 5 5 5 5 4 3 3 1 3 3 3 3 4 4 5 4 7 9 9 8 7 9 10 12 13 13 13 14 14 14 14 14
5 4 4 3 2 2 1 2 3 2 3 4 4 4 5 5 4 6 10 8 9 8 11 11 12 13 13 13 13 14 14 14 14
5 4 4 3 3 3 3 3 2 2 3 4 4 4 4 4 3 2 9 8 10 10 11 12 12 13 13 13 14 15 14 14 14
5 4 4 4 5 5 4 3 2 2 4 4 4 3 4 3 2 1 7 10 11 11 11 12 13 14 14 14 15 14 15 16 16
6 5 4 5 5 6 5 3 2 2 4 4 4 4 5 2 1 1 1 5 10 11 12 13 14 14 15 15 15 15 15 18 18
10 6 4 5 5 4 4 3 2 3 4 4 3 4 4 2 3 3 2 2 2 3 10 12 13 14 15 14 14 14 16 18 18
10 7 7 6 5 3 3 4 2 3 4 5 3 4 1 3 3 3 2 3 3 4 6 11 11 13 13 13 14 16 17 18 19
13 8 8 7 4 4 3 3 4 4 5 4 3 1 1 3 3 2 1 1 3 5 8 13 13 11 13 15 14 16 17 18 20
13 7 6 7 4 4 3 3 5 5 7 4 3 2 1 3 4 3 3 0 5 6 11 13 13 13 16 14 15 19 19 19 21
12 9 7 7 5 5 5 4 3 4 6 4 2 3 3 1 4 4 2 4 4 9 15 15 14 16 14 14 18 18 19 22 24
13 10 8 7 5 5 5 6 5 3 3 6 3 2 2 6 2 3 5 4 6 10 13 15 16 16 16 16 16 17 21 23 25
10 12 8 7 6 6 6 5 4 3 3 1 3 3 3 3 5 2 5 4 9 10 8 12 18 16 15 17 18 19 21 26 29
11 12 9 8 5 7 6 5 4 3 1 2 2 2 3 3 4 9 6 10 9 9 7 13 12 15 16 17 18 21 27 29 29
Wind_Direction
124 109 101 92 82 73 61 58 53 48 44 38 28 28 17 291 349 334 25 327 2 321 307 296 290 288 276 267 272 274 270 269 268
131 118 103 94 85 80 72 61 54 37 349 5 2 18 349 311 323 325 342 339 329 314 307 294 280 274 277 283 267 265 269 268 271
135 130 120 108 100 87 70 45 33 24 358 350 349 351 338 295 321 337 331 359 319 308 303 296 287 281 278 276 276 266 268 269 267
148 153 145 126 111 92 359 6 355 356 346 354 350 336 318 301 327 320 320 6 318 311 299 296 287 279 274 275 276 275 265 264 268
147 148 134 142 67 356 353 8 6 4 359 1 356 320 279 308 316 326 15 339 331 332 353 3 2 7 0 329 296 277 272 267 267
166 87 101 96 291 335 19 32 37 345 157 57 357 289 345 338 353 355 0 343 344 355 4 11 15 9 3 4 17 17 5 330 292
163 145 185 228 240 216 35 36 326 244 5 111 196 6 343 351 349 23 355 349 349 355 14 24 17 23 19 18 13 10 10 14 16
198 184 196 201 196 192 197 192 68 54 27 25 5 338 336 333 340 30 7 5 1 5 36 33 31 23 15 12 15 12 8 4 1
185 190 165 185 183 157 178 100 86 59 31 11 351 339 345 335 338 62 19 23 41 33 52 41 27 18 11 10 3 356 350 347 345
174 172 172 155 138 108 106 80 62 15 3 2 347 338 342 330 340 78 35 45 62 58 45 36 26 15 5 358 355 351 348 346 342
177 168 145 125 102 99 86 62 41 11 352 337 332 325 329 317 341 345 81 64 68 58 46 31 18 8 357 349 342 341 342 336 327
152 140 140 130 116 119 119 100 49 4 347 327 318 315 320 267 182 162 102 117 73 56 38 24 13 2 351 342 337 332 333 331 321
140 132 118 124 122 111 87 63 42 355 343 325 321 315 301 206 143 140 121 68 44 79 26 11 1 354 344 336 332 326 326 322 316
141 130 129 126 110 93 95 77 21 2 351 323 326 331 264 174 144 134 121 61 14 347 355 347 336 339 338 336 329 324 318 319 313
129 114 118 121 117 110 103 98 67 24 355 317 323 342 224 179 175 154 254 21 339 336 335 333 328 327 326 324 326 324 320 316 312
119 118 125 116 108 107 100 96 52 35 1 333 341 227 202 221 216 254 306 317 311 316 330 330 328 326 321 321 325 323 320 318 313
124 129 119 126 119 103 84 67 75 50 22 3 295 322 186 198 211 296 273 312 321 327 328 327 321 321 316 317 316 318 317 316 311
116 116 129 114 122 108 89 71 52 55 56 31 346 305 315 335 252 232 304 291 323 325 319 314 315 313 311 310 314 315 314 311 308
111 119 120 126 115 112 92 78 68 39 39 143 40 3 329 322 308 233 281 321 300 307 307 304 311 303 306 309 304 307 308 310 306
129 122 140 111 109 99 99 93 72 64 36 9 351 311 294 268 277 299 308 303 311 302 300 304 295 301 306 307 303 313 308 307 303